www.pogodaiklimat.ru

Погода и климат >> Архив погоды >> Кувейт >> Остров Файлака


ПОГОДА Остров Файлака

  • Прогноз погоды Остров Файлака
  • Монитор погоды Остров Файлака

АРХИВ ПОГОДЫ Остров Файлака

Время (UTC), дата Ветер
(напр.,м/с)
 
Видим.   Явления Облачность Т
(С)
Тd
(С)
f
(%)
Тe
(С)
Тes
(С)
Комфортность P
(гПа)
Po
(гПа)
Тmin
(С)
Tmax
(С)
R
(мм)
R24
(мм)
S
(см)
15 10.09 С 7-9
{13}
н/о н/о +35.0 +18.0 37 +39 +39 очень
душно
1002.0 1001.4
18 10.09 СЗ 6-7
{13}
н/о н/о +32.9 +15.3 35 +35 +35 душно 1003.5 1002.9
21 10.09 СЗ 6-9
{9}
н/о н/о +31.5 +16.7 41 +35 +35 очень
душно
1003.8 1003.2 +27.8 +45.1
00 11.09 СЗ 5-6
{9}
н/о н/о +28.9 +17.9 51 +33 +33 очень
душно
1003.3 1002.7
03 11.09 СЗ 4-4
{6}
н/о н/о +27.0 +15.4 49 +30 +30 душно 1004.6 1004.0
06 11.09 СЗ 6-7
{9}
н/о н/о +38.4 +13.0 22 +38 +38 очень
жарко
1005.8 1005.2
09 11.09 СЗ 8-11
{14}
н/о н/о +44.1 +17.8 22 +47 +47 опасность
перегрева
1004.7 1004.2
12 11.09 СЗ 10-13
{17}
н/о н/о +42.8 +16.0 21 +44 +44 опасность
перегрева
1003.2 1002.7
15 11.09 С 8-11
{16}
н/о н/о +35.0 +18.0 37 +39 +39 очень
душно
1003.8 1003.2
18 11.09 СЗ 7-9
{16}
н/о н/о +32.3 +16.6 39 +35 +35 очень
душно
1005.2 1004.6
21 11.09 С 7-10
{10}
н/о н/о +31.0 +17.0 43 +35 +35 очень
душно
1005.3 1004.7 +25.3 +45.0
00 12.09 СЗ 6-8
{10}
н/о н/о +29.1 +16.7 47 +33 +33 очень
душно
1005.0 1004.4
03 12.09 СЗ 4-4
{10}
н/о н/о +26.3 +15.4 51 +29 +29 жарко 1005.6 1005.0
06 12.09 СЗ 5-7
{10}
н/о н/о +36.5 +12.7 24 +36 +36 очень
жарко
1007.0 1006.4
09 12.09 СЗ 10-14
{14}
н/о н/о +44.3 +15.2 19 +45 +45 опасность
перегрева
1005.6 1005.1
12 12.09 С 8-11
{14}
н/о н/о +41.9 +16.4 23 +44 +44 опасность
перегрева
1004.0 1003.5
15 12.09 С 7-9
{13}
н/о н/о +34.3 +17.6 37 +38 +38 очень
душно
1004.1 1003.5
18 12.09 С 5-7
{13}
н/о н/о +32.0 +18.2 44 +37 +37 очень
душно
1005.3 1004.7
21 12.09 С 3-3
{7}
н/о н/о +27.3 +18.8 60 +32 +32 очень
душно
1004.6 1004.0 +25.4 +44.6
00 13.09 СЗ 4-5
{7}
н/о н/о +27.1 +17.3 55 +31 +31 душно 1004.3 1003.7
03 13.09 СЗ 3-3
{5}
н/о н/о +26.2 +16.4 55 +30 +30 душно 1005.4 1004.8
06 13.09 СЗ 3-4
{5}
н/о н/о +38.5 +12.6 21 +38 +38 очень
жарко
1007.3 1006.7
09 13.09 С 3-5
{7}
н/о н/о +45.7 +12.8 15 +45 +45 опасность
перегрева
1006.5 1006.0
12 13.09 Ю 2-3
{7}
н/о н/о +45.0 +8.2 11 +43 +43 опасность
перегрева
1004.8 1004.3
15 13.09 ЮВ 2-3
{4}
н/о н/о +35.0 +17.0 34 +38 +38 очень
душно
1004.7 1004.1
18 13.09 ЮЗ 1-2
{5}
н/о н/о +29.2 +22.6 68 +39 +39 очень
душно
1005.9 1005.3
21 13.09 ЮЗ 2-3
{3}
н/о н/о +27.2 +20.4 66 +34 +34 очень
душно
1005.1 1004.5 +24.7 +47.0
00 14.09 СЗ 3-3
{3}
н/о н/о +25.8 +24.0 90 +36 +36 очень
душно
1004.7 1004.1
03 14.09 СЗ 4-5
{5}
н/о н/о +27.4 +20.3 65 +34 +34 очень
душно
1006.2 1005.6
06 14.09 СЗ 5-5
{6}
н/о н/о +38.5 +12.5 21 +38 +38 очень
жарко
1007.7 1007.1
09 14.09 С 4-5
{7}
н/о н/о +47.3 +13.9 15 +48 +48 опасность
перегрева
1006.2 1005.7
12 14.09 Ю 3-5
{8}
н/о н/о +43.5 +14.5 19 +44 +44 опасность
перегрева
1004.8 1004.3
15 14.09 ЮВ 2-2
{5}
н/о н/о +34.9 +18.0 37 +39 +39 очень
душно
1004.6 1004.0
18 14.09 СВ 1-1
{5}
н/о н/о +29.6 +18.7 52 +35 +35 очень
душно
1005.5 1004.9
21 14.09 ЮЗ 3-3
{4}
н/о н/о +30.1 +22.9 65 +40 +40 очень
душно
1005.0 1004.4 +25.6 +49.3
00 15.09 ЮЗ 3-3
{4}
н/о н/о +28.3 +24.5 80 +40 +40 очень
душно
1004.7 1004.1
03 15.09 СЗ 4-4
{4}
н/о н/о +26.8 +22.5 77 +35 +35 очень
душно
1006.0 1005.4
06 15.09 З 5-6
{7}
н/о н/о +38.4 +16.1 27 +40 +40 очень
душно
1007.5 1006.9
09 15.09 С 3-4
{6}
н/о н/о +48.4 +13.3 13 +48 +48 опасность
перегрева
1006.4 1005.9
12 15.09 В 4-6
{6}
н/о н/о +45.0 +10.4 13 +44 +44 опасность
перегрева
1004.9 1004.4
15 15.09 ЮВ 3-5
{7}
н/о н/о +35.1 +17.2 35 +38 +38 очень
душно
1004.8 1004.2
18 15.09 Ю 3-5
{7}
н/о н/о +31.5 +28.2 83 +52 +52 опасность
перегрева
1006.5 1005.9
21 15.09 Ю 3-4
{5}
н/о н/о +30.7 +27.9 85 +50 +50 опасность
перегрева
1006.0 1005.4 +25.3 +49.6
00 16.09 ЮЗ 3-4
{5}
н/о н/о +28.7 +24.3 77 +40 +40 очень
душно
1005.5 1004.9
03 16.09 З 2-2
{5}
н/о н/о +27.6 +20.8 66 +34 +34 очень
душно
1007.0 1006.4
06 16.09 СВ 2-3
{5}
н/о н/о +42.5 +19.5 27 +47 +47 опасность
перегрева
1008.4 1007.9
09 16.09 В 5-7
{7}
н/о н/о +43.8 +22.4 30 +52 +52 опасность
перегрева
1006.9 1006.4
12 16.09 В 5-6
{9}
н/о н/о +43.1 +18.9 25 +47 +47 опасность
перегрева
1005.2 1004.7
15 16.09 Ю 2-2
{7}
н/о н/о +32.1 +23.8 62 +44 +44 опасность
перегрева
1005.0 1004.4
18 16.09 ЮЗ 2-3
{7}
н/о н/о +28.4 +27.1 93 +45 +45 опасность
перегрева
1006.0 1005.4
21 16.09 ЮЗ 2-2
{3}
9000 м дымка н/о +27.6 +27.4 99 +44 +44 опасность
перегрева
1005.6 1005.0 +26.3 +49.3
00 17.09 СЗ 3-4
{4}
н/о н/о +25.1 +24.4 96 +35 +35 очень
душно
1005.0 1004.4
03 17.09 З 3-3
{4}
н/о н/о +26.5 +23.1 82 +36 +36 очень
душно
1005.8 1005.2
06 17.09 З 3-4
{5}
н/о н/о +38.7 +15.2 25 +40 +40 очень
душно
1006.9 1006.3
09 17.09 Ю 2-4
{4}
н/о н/о +46.4 +13.5 15 +46 +46 опасность
перегрева
1005.4 1004.9

 

Местоположение метеостанции Остров Файлака (Кувейт): широта 29.47 долгота 48.28 высота над уровнем моря 5 м.

В архиве по умолчанию представлена погода Остров Файлака за последнюю неделю. Архивные данные за месяц целиком и за предыдущие месяцы, начиная с января 2011 года, Вы можете получить, выбрав интересующий диапазон дат из раскрывающегося списка и нажав кнопку "Ввод!".


*Определитесь, кто Вы:
робот инопланетянин человек

Внимание! Время в таблицах - всемирное. Для получения местного времени необходимо прибавить поправку, которая равна 3 ч.

Смотрите также архив погоды в соседних городах и на ближайших метеорологических станциях:

Погода в Аль-Шуаиба (Кувейт) (22 км)
Погода в Кувейт Сити (Кувейт) (27 км)
Погода на Бубияне (Кувейт) (35 км)
Погода на Экспериментальной ферме (Кувейт) (39 км)
Погода в Эль-Кувейте (Кувейт) (41 км)
Погода на Метеостанции Sabriyah (Кувейт) (52 км)
Погода в Сулайбии (Кувейт) (59 км)
Погода в Эль-Фао (Ирак) (61 км)
Погода в Эль-Джахра (Кувейт) (61 км)
Погода в Порту Juluiah (Кувейт) (67 км)

Пояснения к столбцам:

Ветер - указаны скорость ветра в м/с - средняя за 10 мин, порывы в срок и между сроками (в фигурных скобках) и направление, откуда дует ветер: С - северный, СВ - северо-восточный, В - восточный, ЮВ - юго-восточный, Ю - южный, ЮЗ - юго-западный, З - западный, СЗ - северо-западный.
Видимость - горизонтальная дальность видимости в метрах или километрах. При видимости от 1 до 10 км при отсутствии осадков обычно наблюдается дымка, при ухудшении видимости до 1 км и менее - туман. В сухую погоду видимость может ухудшаться дымом, пылью или мглою.
Явления - указаны атмосферные явления, наблюдавшиеся в срок или в последний час перед сроком; фигурными скобками обозначены явления, наблюдавшиеся между сроками (за 1-3 часа до срока); квадратными скобками обозначены град или гололедные отложения с указанием их диаметра в мм.
Облачность - указаны через наклонную черту общая и нижняя облачность в баллах и высота нижней границы облаков в метрах; квадратными скобками обозначены формы облаков: Ci - перистые, Cs - перисто-слоистые, Cc - перисто-кучевые, Ac - высококучевые, As - высокослоистые, Sc - слоисто-кучевые, Ns - слоисто-дождевые, Cu - кучевые, Cb - кучево-дождевые. Подробнее классификацию облаков см. в Атласе облаков (PDF).
T - Температура воздуха - температура, измеренная на высоте 2 м над землей.
Td - Температура точки росы - температура, при понижении до которой содержащийся в воздухе водяной пар достигнет насыщения.
f - Относительная влажность воздуха - влажноcть воздуха, измеренная на высоте 2 м над землей.
Te - Эффективная температура - температура, которую ощущает одетый по сезону человек в тени. Характеристика душности погоды. При расчете учитывается влияние влажности воздуха и скорости ветра на теплоощущения человека.
Tes - Эффективная температура на солнце - температура, которую ощущает человек, с поправкой на солнечный нагрев. Характеристика знойности погоды. Зависит от высоты солнца над горизонтом, облачности и скорости ветра. Ночью, в пасмурную погоду, а также при ветре 12 м/с и более поправка равна нулю.
P - Атмосферное давление - приведенное к уровню моря атмосферное давление.
Po - Атмосферное давление - измеренное на уровне метеостанции атмосферное давление.
Tmin - Минимальная температура - минимум температуры воздуха на высоте 2 м над землей.
Tmax - Максимальная температура - максимум температуры воздуха на высоте 2 м над землей.
R - Количество осадков - Количество выпавших осадков за период времени, мм. При наведении курсора мыши на число - период времени, за который выпало указанное количество осадков.
R24 - Количество осадков - Количество выпавших осадков за 24 часа, мм.
S - Снежный покров - Высота снежного покрова, см. При наведении курсора мыши на число - состояние снежного покрова и степень покрытия местности в баллах.